Location: Poughquag
(41.6090°N, 73.6820°W)
Time: 03:40:24
(UTC-04:00)

Transit 2A - Pass Details

Date: 29 May 2020
Orbit: 592 x 967 km, 66.7° (Epoch: 06 July)

Event Time Altitude Azimuth Distance (km) Brightness Sun altitude
Rises 21:07:18 0° 339° (NNW) 3,489 10.6 -8.0°
Reaches altitude 10° 21:11:08 10° 4° (N) 2,614 9.3 -8.5°
Maximum altitude 21:14:19 14° 35° (NE) 2,356 8.6 -9.0°
Drops below altitude 10° 21:17:34 10° 67° (ENE) 2,685 8.6 -9.5°
Enters shadow 21:21:00 - 88° (E) 3,490 9.0 -9.9°
Sets 21:21:35 0° 91° (E) 3,650 - -10.0°
